Location: Cosy Dell
(34.2789°N, 117.4537°W)
Time: 00:53:56
(UTC+00:00)

Cosmos 676 Rocket - Pass Details

Date: 14 July 2020
Orbit: 753 x 785 km, 74.0° (Epoch: 12 August)

Event Time Altitude Azimuth Distance (km) Brightness Sun altitude
Exits shadow 09:38:09 65° 60° (ENE) 845 4.2 -29.1°
Drops below altitude 10° 09:42:50 10° 22° (NNE) 2,324 7.4 -28.6°
Sets 09:45:15 0° 20° (NNE) 3,260 8.5 -28.4°
